User: anonymous   Login
Location: Unspecified
(32.2645°N, 0.0000°E)
Time: 07:49:24
(UTC+00:00)
Language:

SPOT 3 Rocket - Orbit

View from above orbital plane
View from above orbital plane
View from above satellite
View from above satellite

Ground track
Ground track

The orbit is defined by the following mean orbital elements,

1 22830U          26088.18122543 +.00000000 +00000-0 +10655-3 0 00008
2 22830  98.4881 156.6809 0010038 221.3655 138.6770 14.32871337    07
Epoch (UTC): 29 March 2026 04:20:57
Eccentricity: 0.0010038
inclination: 98.4881°
perigee height: 775 km
apogee height: 789 km
right ascension of ascending node: 156.6809°
argument of perigee: 221.3655°
revolutions per day: 14.32871337
mean anomaly at epoch: 138.6770°

The dashed part of the orbit path shows where the satellite is in the earth's shadow,  

DLR